| time (UTC) | temp C | wind direction | speed KPH | gust KPH | rain 1hr cm | rain 24hr cm | rain mn cm | humidity % | barometer mb |
| 20260504081604 | 8 | 278 | 0.0 | 3.2 | 0.00 | 0.00 | 0.00 | 56 | 999.9 |
| 20260504070108 | 8 | 292 | 0.0 | 1.6 | 0.00 | 0.00 | 0.00 | 55 | 1001.1 |
| 20260504060127 | 8 | 0 | 0.0 | 1.6 | 0.00 | 0.00 | 0.00 | 55 | 1002.2 |
| 20260504050115 | 8 | 289 | 1.6 | 3.2 | 0.00 | 0.00 | 0.00 | 55 | 1002.9 |
| 20260504044559 | 8 | 283 | 0.0 | 3.2 | 0.00 | 0.00 | 0.00 | 55 | 1003.1 |
| 20260504043108 | 8 | 291 | 0.0 | 3.2 | 0.00 | 0.00 | 0.00 | 52 | 1003.3 |
| 20260504041557 | 8 | 0 | 0.0 | 4.8 | 0.00 | 0.00 | 0.00 | 50 | 1003.4 |
| 20260504040109 | 8 | 266 | 0.0 | 1.6 | 0.00 | 0.00 | 0.00 | 50 | 1003.9 |
| 20260504034601 | 7 | 0 | 0.0 | 0.0 | 0.00 | 0.00 | 0.00 | 55 | 1004.0 |
| 20260504033107 | 9 | 0 | 0.0 | 0.0 | 0.00 | 0.00 | 0.00 | 50 | 1004.3 |
| 20260504031605 | 8 | 0 | 0.0 | 0.0 | 0.00 | 0.00 | 0.00 | 50 | 1004.5 |
| 20260504030059 | 10 | 0 | 0.0 | 0.0 | 0.00 | 0.00 | 0.00 | 47 | 1004.8 |
| 20260504024601 | 11 | 0 | 0.0 | 1.6 | 0.00 | 0.00 | 0.00 | 44 | 1004.9 |
| 20260504023059 | 10 | 0 | 0.0 | 0.0 | 0.00 | 0.00 | 0.00 | 44 | 1005.0 |
| 20260504021558 | 11 | 0 | 0.0 | 0.0 | 0.00 | 0.00 | 0.00 | 43 | 1005.0 |
| 20260504020100 | 11 | 0 | 0.0 | 0.0 | 0.00 | 0.00 | 0.00 | 41 | 1005.3 |
| 20260504014604 | 12 | 0 | 0.0 | 0.0 | 0.00 | 0.00 | 0.00 | 38 | 1005.2 |
| 20260504013113 | 13 | 0 | 0.0 | 1.6 | 0.00 | 0.00 | 0.00 | 34 | 1005.3 |
| 20260504011600 | 15 | 0 | 0.0 | 3.2 | 0.00 | 0.00 | 0.00 | 31 | 1005.4 |
| 20260504010116 | 17 | 285 | 1.6 | 8.0 | 0.00 | 0.00 | 0.00 | 29 | 1005.4 |
| 20260504004600 | 18 | 277 | 4.8 | 9.7 | 0.00 | 0.00 | 0.00 | 26 | 1005.4 |
| 20260504003103 | 19 | 288 | 8.0 | 12.9 | 0.00 | 0.00 | 0.00 | 24 | 1005.3 |
| 20260504001608 | 20 | 285 | 8.0 | 14.5 | 0.00 | 0.00 | 0.00 | 22 | 1005.5 |
| 20260504000101 | 20 | 292 | 6.4 | 17.7 | 0.00 | 0.00 | 0.00 | 24 | 1005.7 |
| 20260503234600 | 20 | 268 | 11.3 | 19.3 | 0.00 | 0.00 | 0.00 | 24 | 1005.9 |
| 20260503233104 | 20 | 276 | 9.7 | 20.9 | 0.00 | 0.00 | 0.00 | 25 | 1006.3 |
| 20260503231600 | 21 | 285 | 9.7 | 19.3 | 0.00 | 0.00 | 0.00 | 27 | 1006.5 |
| 20260503230100 | 21 | 287 | 8.0 | 16.1 | 0.00 | 0.00 | 0.00 | 26 | 1006.6 |
| 20260503224603 | 21 | 281 | 9.7 | 20.9 | 0.00 | 0.00 | 0.00 | 26 | 1006.6 |
| 20260503223103 | 21 | 269 | 9.7 | 17.7 | 0.00 | 0.00 | 0.00 | 28 | 1006.7 |
| 20260503221606 | 20 | 297 | 11.3 | 19.3 | 0.00 | 0.00 | 0.00 | 26 | 1006.8 |
| 20260503220104 | 21 | 272 | 8.0 | 24.1 | 0.00 | 0.00 | 0.00 | 28 | 1006.9 |
| 20260503214558 | 20 | 303 | 11.3 | 16.1 | 0.00 | 0.00 | 0.00 | 29 | 1007.0 |
| 20260503213100 | 20 | 310 | 8.0 | 20.9 | 0.00 | 0.00 | 0.00 | 29 | 1007.4 |
| 20260503211559 | 20 | 295 | 8.0 | 19.3 | 0.00 | 0.00 | 0.00 | 27 | 1007.6 |
| 20260503210101 | 20 | 297 | 9.7 | 20.9 | 0.00 | 0.00 | 0.00 | 27 | 1007.9 |
| 20260503204610 | 20 | 299 | 8.0 | 24.1 | 0.00 | 0.00 | 0.00 | 27 | 1008.0 |
| 20260503203106 | 20 | 276 | 11.3 | 24.1 | 0.00 | 0.00 | 0.00 | 31 | 1008.2 |
| 20260503201559 | 20 | 281 | 9.7 | 22.5 | 0.00 | 0.00 | 0.00 | 29 | 1008.6 |
| 20260503200100 | 19 | 304 | 8.0 | 20.9 | 0.00 | 0.00 | 0.00 | 30 | 1008.8 |
| 20260503194624 | 19 | 314 | 11.3 | 24.1 | 0.00 | 0.00 | 0.00 | 31 | 1008.9 |
| 20260503193058 | 19 | 288 | 9.7 | 19.3 | 0.00 | 0.00 | 0.00 | 32 | 1008.9 |
| 20260503191604 | 18 | 293 | 9.7 | 27.4 | 0.00 | 0.00 | 0.00 | 31 | 1009.0 |
| 20260503184600 | 18 | 320 | 14.5 | 29.0 | 0.00 | 0.00 | 0.00 | 34 | 1009.5 |
| 20260503183107 | 18 | 333 | 9.7 | 25.7 | 0.00 | 0.00 | 0.00 | 32 | 1009.8 |
| 20260503181558 | 18 | 332 | 12.9 | 25.7 | 0.00 | 0.00 | 0.00 | 33 | 1010.0 |
| 20260503180108 | 18 | 329 | 14.5 | 27.4 | 0.00 | 0.00 | 0.00 | 34 | 1010.2 |
| 20260503174557 | 18 | 328 | 14.5 | 25.7 | 0.00 | 0.00 | 0.00 | 36 | 1010.2 |
| 20260503173203 | 17 | 14 | 11.3 | 32.2 | 0.00 | 0.00 | 0.00 | 36 | 1010.4 |
| 20260503171559 | 17 | 332 | 11.3 | 27.4 | 0.00 | 0.00 | 0.00 | 39 | 1010.7 |